Location: *
(45.9500°N, 9.0833°E)
Time: 01:59:11
(UTC+00:00)

SR - Pass Details

Date: 18 June 2021
Orbit: 577 x 878 km, 66.7° (Epoch: 23 July)

Event Time Altitude Azimuth Distance (km) Brightness Sun altitude
Rises 00:14:11 0° 329° (NNW) 3,342 ? -19.7°
Reaches altitude 10° 00:16:50 10° 336° (NNW) 2,361 ? -19.6°
Maximum altitude 00:21:59 43° 48° (NE) 1,040 ? -19.4°
Drops below altitude 10° 00:26:40 10° 120° (ESE) 2,156 ? -19.2°
Enters shadow 00:28:11 - 125° (SE) 2,709 ? -19.2°
Sets 00:29:00 0° 127° (SE) 3,020 - -19.1°
